User: anonymous   Login
Location: Vancouver
(49.2500°N, 123.1330°W)
Time: 00:53:57
(UTC-07:00)
Language:

Cosmos 2333 Rocket - Orbit

View from above orbital plane
View from above orbital plane
View from above satellite
View from above satellite

Ground track
Ground track

The orbit data is extracted from the following two-line orbital elements,

1 24298U 96051B   15183.79328682 -.00000161  00000-0 -60774-4 0  9997
2 24298 070.8431 130.1939 0015840 175.4703 196.6588 14.12413289970814
Epoch (UTC): 02 July 2015 19:02:19
Eccentricity: 0.0015840
inclination: 70.8431°
perigee height: 839 km
apogee height: 862 km
right ascension of ascending node: 130.1939°
argument of perigee: 175.4703°
revolutions per day: 14.12413289
mean anomaly at epoch: 196.6588°
orbit number at epoch: 97081

The dashed part of the orbit path shows where the satellite is in the earth's shadow,  

DLR